Hourly Weather Dispur

Today, 10 July, Friday

Time Temperature Precipitation Wind Pressure Humidity
00:00 +28°C° 0 mm 1 mps 745 mmHg 93%
01:00 +28°C° 0.6 mm 1 mps 744 mmHg 93%
02:00 +28°C° 0.6 mm 1 mps 744 mmHg 94%
03:00 +26°C° 0.6 mm 0 mps 743 mmHg 94%
04:00 +28°C° 1.6 mm 1 mps 743 mmHg 95%
05:00 +28°C° 1.6 mm 1 mps 744 mmHg 95%
06:00 +28°C° 0 mm 2 mps 744 mmHg 95%
07:00 +29°C° 1.6 mm 2 mps 745 mmHg 94%
08:00 +29°C° 1.6 mm 2 mps 745 mmHg 92%
09:00 +29°C° 1.6 mm 2 mps 745 mmHg 91%
10:00 +30°C° 1.6 mm 2 mps 745 mmHg 88%
11:00 +31°C° 1.6 mm 2 mps 746 mmHg 86%
12:00 +33°C° 1.6 mm 3 mps 746 mmHg 83%
13:00 +31°C° 1.1 mm 3 mps 746 mmHg 85%
14:00 +30°C° 1.1 mm 3 mps 745 mmHg 88%
15:00 +30°C° 1.1 mm 3 mps 744 mmHg 90%
16:00 +29°C° 0.9 mm 3 mps 744 mmHg 91%
17:00 +29°C° 0.9 mm 2 mps 744 mmHg 93%
18:00 +28°C° 0.9 mm 2 mps 744 mmHg 94%
19:00 +28°C° 1.5 mm 1 mps 744 mmHg 95%
20:00 +28°C° 1.5 mm 1 mps 745 mmHg 96%
21:00 +28°C° 1.5 mm 1 mps 745 mmHg 97%
22:00 +28°C° 0.2 mm 1 mps 745 mmHg 97%
23:00 +25°C° 0.2 mm 0 mps 745 mmHg 96%

Tomorrow, 11 July, Saturday

Time Temperature Precipitation Wind Pressure Humidity
00:00 +25°C° 0.2 mm 0 mps 744 mmHg 96%
01:00 +25°C° 2 mm 0 mps 744 mmHg 97%
02:00 +25°C° 2 mm 0 mps 743 mmHg 97%
03:00 +25°C° 2 mm 0 mps 743 mmHg 97%
04:00 +25°C° 1.3 mm 0 mps 743 mmHg 97%
05:00 +25°C° 1.3 mm 0 mps 743 mmHg 97%
06:00 +25°C° 1.3 mm 0 mps 743 mmHg 96%
07:00 +26°C° 0.8 mm 0 mps 743 mmHg 96%
08:00 +26°C° 0.8 mm 0 mps 743 mmHg 95%
09:00 +26°C° 0.8 mm 0 mps 744 mmHg 94%
10:00 +26°C° 2 mm 0 mps 744 mmHg 94%
11:00 +26°C° 2 mm 0 mps 744 mmHg 94%
12:00 +28°C° 2 mm 1 mps 744 mmHg 93%
13:00 +28°C° 1.4 mm 1 mps 744 mmHg 94%
14:00 +26°C° 1.4 mm 0 mps 743 mmHg 94%
15:00 +26°C° 1.4 mm 0 mps 743 mmHg 95%
16:00 +28°C° 1.2 mm 1 mps 743 mmHg 96%
17:00 +28°C° 1.2 mm 1 mps 743 mmHg 96%
18:00 +27°C° 1.2 mm 1 mps 744 mmHg 97%
19:00 +27°C° 0.2 mm 1 mps 744 mmHg 97%
20:00 +27°C° 0.2 mm 1 mps 745 mmHg 97%
21:00 +27°C° 0.2 mm 1 mps 745 mmHg 97%
22:00 +27°C° 0.3 mm 1 mps 745 mmHg 97%
23:00 +27°C° 0.3 mm 1 mps 745 mmHg 97%

Day after tomorrow, 12 July, Sunday

Time Temperature Precipitation Wind Pressure Humidity
00:00 +27°C° 0.3 mm 1 mps 745 mmHg 97%
01:00 +27°C° 0.5 mm 1 mps 744 mmHg 97%
02:00 +27°C° 0.5 mm 1 mps 744 mmHg 97%
03:00 +27°C° 0.5 mm 1 mps 744 mmHg 97%
04:00 +27°C° 1.4 mm 1 mps 744 mmHg 97%
05:00 +27°C° 1.4 mm 1 mps 744 mmHg 97%
06:00 +27°C° 1.4 mm 1 mps 744 mmHg 98%
07:00 +27°C° 0.8 mm 1 mps 744 mmHg 97%
08:00 +27°C° 0.8 mm 2 mps 745 mmHg 97%
09:00 +28°C° 0.8 mm 2 mps 745 mmHg 96%
10:00 +28°C° 1.1 mm 2 mps 745 mmHg 96%
11:00 +28°C° 1.1 mm 2 mps 745 mmHg 95%
12:00 +28°C° 1.1 mm 2 mps 745 mmHg 94%
13:00 +28°C° 2.9 mm 1 mps 745 mmHg 95%
14:00 +28°C° 2.9 mm 1 mps 745 mmHg 96%
15:00 +28°C° 2.9 mm 1 mps 745 mmHg 96%
16:00 +28°C° 1.2 mm 1 mps 745 mmHg 97%
17:00 +28°C° 1.2 mm 1 mps 745 mmHg 97%
18:00 +28°C° 1.2 mm 1 mps 745 mmHg 97%
19:00 +28°C° 1.5 mm 1 mps 745 mmHg 97%
20:00 +27°C° 1.5 mm 1 mps 746 mmHg 97%
21:00 +27°C° 1.5 mm 1 mps 746 mmHg 98%
22:00 +27°C° 1.6 mm 1 mps 746 mmHg 98%
23:00 +27°C° 1.6 mm 1 mps 746 mmHg 98%

13 July, Monday

Time Temperature Precipitation Wind Pressure Humidity
00:00 +27°C° 1.6 mm 1 mps 746 mmHg 98%
01:00 +27°C° 1.6 mm 1 mps 746 mmHg 98%
02:00 +25°C° 1.6 mm 0 mps 745 mmHg 98%
03:00 +25°C° 1.6 mm 0 mps 745 mmHg 98%
04:00 +25°C° 0.7 mm 0 mps 745 mmHg 97%
05:00 +25°C° 0.7 mm 0 mps 746 mmHg 97%
06:00 +25°C° 0.7 mm 0 mps 746 mmHg 97%
07:00 +25°C° 0.4 mm 0 mps 746 mmHg 95%
08:00 +26°C° 0.4 mm 0 mps 747 mmHg 94%
09:00 +28°C° 0.4 mm 1 mps 747 mmHg 93%
10:00 +28°C° 0.7 mm 1 mps 747 mmHg 93%
11:00 +28°C° 0.7 mm 1 mps 748 mmHg 94%
12:00 +28°C° 0.7 mm 1 mps 748 mmHg 94%
13:00 +28°C° 0.5 mm 1 mps 748 mmHg 94%
14:00 +28°C° 0.5 mm 2 mps 747 mmHg 95%
15:00 +28°C° 0.5 mm 2 mps 747 mmHg 95%
16:00 +27°C° 0.3 mm 1 mps 747 mmHg 96%
17:00 +27°C° 0.3 mm 1 mps 747 mmHg 96%
18:00 +27°C° 0.3 mm 1 mps 748 mmHg 96%
19:00 +27°C° 0.2 mm 1 mps 748 mmHg 96%
20:00 +27°C° 0.2 mm 1 mps 749 mmHg 97%
21:00 +27°C° 0.2 mm 1 mps 749 mmHg 97%
22:00 +27°C° 0.2 mm 1 mps 749 mmHg 97%
23:00 +27°C° 0.2 mm 1 mps 749 mmHg 97%

14 July, Tuesday

Time Temperature Precipitation Wind Pressure Humidity
00:00 +26°C° 0.2 mm 1 mps 749 mmHg 97%
01:00 +24°C° 0.1 mm 0 mps 749 mmHg 97%
02:00 +24°C° 0.1 mm 0 mps 748 mmHg 97%
03:00 +24°C° 0.1 mm 0 mps 748 mmHg 97%
04:00 +24°C° 0.2 mm 0 mps 748 mmHg 97%
05:00 +24°C° 0.2 mm 0 mps 748 mmHg 97%
06:00 +24°C° 0.2 mm 0 mps 749 mmHg 97%
07:00 +25°C° 0.2 mm 0 mps 749 mmHg 96%
08:00 +25°C° 0.2 mm 0 mps 749 mmHg 95%
09:00 +26°C° 0.2 mm 0 mps 750 mmHg 94%
10:00 +26°C° 0.5 mm 0 mps 750 mmHg 92%
11:00 +27°C° 0.5 mm 0 mps 750 mmHg 90%
12:00 +29°C° 0.5 mm 1 mps 750 mmHg 88%
13:00 +30°C° 0.8 mm 1 mps 749 mmHg 87%
14:00 +30°C° 0.8 mm 1 mps 748 mmHg 87%
15:00 +30°C° 0.8 mm 1 mps 748 mmHg 86%
16:00 +28°C° 0.2 mm 0 mps 748 mmHg 86%
17:00 +28°C° 0.2 mm 0 mps 748 mmHg 87%
18:00 +28°C° 0.2 mm 0 mps 748 mmHg 87%
19:00 +27°C° 0.8 mm 0 mps 748 mmHg 89%
20:00 +26°C° 0.8 mm 0 mps 748 mmHg 91%
21:00 +28°C° 0.8 mm 1 mps 749 mmHg 93%
22:00 +28°C° 0.9 mm 1 mps 749 mmHg 93%
23:00 +27°C° 0.9 mm 1 mps 749 mmHg 93%

15 July, Wednesday

Time Temperature Precipitation Wind Pressure Humidity
00:00 +27°C° 0.9 mm 1 mps 749 mmHg 93%
01:00 +25°C° 0.7 mm 0 mps 749 mmHg 93%
02:00 +25°C° 0.7 mm 0 mps 749 mmHg 94%
03:00 +25°C° 0.7 mm 0 mps 748 mmHg 94%
04:00 +25°C° 0.4 mm 0 mps 748 mmHg 94%
05:00 +25°C° 0.4 mm 0 mps 748 mmHg 95%
06:00 +25°C° 0.4 mm 0 mps 748 mmHg 95%
07:00 +25°C° 0.6 mm 0 mps 749 mmHg 95%
08:00 +28°C° 0.6 mm 1 mps 749 mmHg 94%
09:00 +28°C° 0.6 mm 1 mps 749 mmHg 93%
10:00 +29°C° 0.3 mm 1 mps 749 mmHg 90%
11:00 +30°C° 0.3 mm 1 mps 748 mmHg 87%
12:00 +30°C° 0.3 mm 2 mps 748 mmHg 84%
13:00 +31°C° 0.6 mm 1 mps 748 mmHg 82%
14:00 +32°C° 0.6 mm 1 mps 747 mmHg 79%
15:00 +32°C° 0.6 mm 1 mps 746 mmHg 77%
16:00 +32°C° 0.4 mm 1 mps 746 mmHg 79%
17:00 +29°C° 0.4 mm 0 mps 746 mmHg 82%
18:00 +29°C° 0.4 mm 0 mps 745 mmHg 84%
19:00 +28°C° 0.7 mm 0 mps 746 mmHg 86%
20:00 +29°C° 0.7 mm 1 mps 747 mmHg 89%
21:00 +28°C° 0.7 mm 1 mps 747 mmHg 91%
22:00 +28°C° 1.6 mm 1 mps 747 mmHg 92%
23:00 +28°C° 1.6 mm 1 mps 747 mmHg 93%
Show more